Weather History for Macomb, IL

Change the Weather History Date:

Thursday, October 31, 2013

  Actual Average (KBRL) Record (KBRL)
Temperature  
Mean Temperature 56 °F 50 °F  
Max Temperature 65 °F 60 °F 86 °F (1950)
Min Temperature 47 °F 40 °F 18 °F (1913)
Degree Days  
Heating Degree Days 9 15  
Month to date heating degree days 322  
Since 1 July heating degree days 394  
Cooling Degree Days 0 0  
Month to date cooling degree days 24  
Year to date cooling degree days 1206  
Growing Degree Days 6 (Base 50)    
Moisture  
Dew Point 57 °F    
Average Humidity 98    
Maximum Humidity 99    
Minimum Humidity 93    
Precipitation  
Precipitation 0.84 in 0.09 in 0.87 in (1960)
Month to date precipitation 3.12  
Year to date precipitation 33.89  
Sea Level Pressure  
Sea Level Pressure 29.56 in    
Wind  
Wind Speed 9 mph (WSW)    
Max Wind Speed 20 mph    
Max Gust Speed 22 mph    
Visibility 9 miles    
Events Rain    
T = Trace of Precipitation, MM = Missing Value Source: NWS Daily Summary

Daily Weather History Graph

Daily Weather History Graph

Search for Another Location

Airport:

Trip Planner

Search our weather history database for the weather conditions in past years. The results will help you decide how hot, cold, wet, or windy it might be!

Date:

Astronomy

Oct. 31, 2013 Rise Set
Actual Time 7:31 AM CDT 6:00 PM CDT
Civil Twilight 7:03 AM CDT 6:28 PM CDT
Nautical Twilight 6:31 AM CDT 7:00 PM CDT
Astronomical Twilight 5:59 AM CDT 7:32 PM CDT
Moon 4:20 AM CDT (10/31) 4:18 PM CDT (10/31)
Length of Visible Light 11h 24m
Length of Day
10h 28m
Waning Crescent, 10% of the Moon is Illuminated
Oct 31
Waning Crescent
Nov 3
New
Nov 9
First Quarter
Nov 17
Full
Nov 25
Last Quarter

Hourly Weather History & Observations

Time (CDT) Temp. Dew Point Humidity Pressure Visibility Wind Dir Wind Speed Gust Speed Precip Events Conditions
12:15 AM 65.7 °F 65.3 °F 99% 29.77 in 4.0 mi South 10.4 mph - 0.02 in Rain Light Rain
12:35 AM 65.7 °F 65.3 °F 99% 29.75 in 5.0 mi SSW 9.2 mph - 0.04 in Rain Rain
12:55 AM 65.7 °F 65.1 °F 98% 29.75 in 3.0 mi SSW 8.1 mph - 0.15 in Rain Heavy Rain
1:15 AM 65.5 °F 64.9 °F 98% 29.74 in 5.0 mi SSW 8.1 mph - 0.02 in Rain Rain
1:35 AM 65.7 °F 65.1 °F 98% 29.73 in 7.0 mi SSW 10.4 mph - 0.05 in Rain Light Rain
1:55 AM 65.5 °F 64.9 °F 98% 29.72 in 7.0 mi SSW 9.2 mph - 0.08 in Rain Light Rain
2:15 AM 65.3 °F 64.8 °F 98% 29.72 in 7.0 mi SSW 8.1 mph 17.3 mph 0.01 in Rain Light Rain
2:35 AM 65.3 °F 64.6 °F 98% 29.71 in 10.0 mi SSW 10.4 mph 17.3 mph 0.01 in   Overcast
2:55 AM 64.8 °F 64.4 °F 99% 29.70 in 10.0 mi SSW 9.2 mph - 0.01 in   Mostly Cloudy
3:15 AM 64.6 °F 64.0 °F 98% 29.69 in 10.0 mi SSW 9.2 mph 17.3 mph N/A   Scattered Clouds
3:35 AM 64.6 °F 64.0 °F 98% 29.67 in 10.0 mi SSW 11.5 mph 18.4 mph N/A   Scattered Clouds
3:55 AM 64.4 °F 63.9 °F 98% 29.67 in 10.0 mi SSW 11.5 mph - N/A   Mostly Cloudy
4:15 AM 64.4 °F 63.9 °F 98% 29.67 in 10.0 mi SSW 6.9 mph - N/A   Overcast
4:35 AM 64.4 °F 63.7 °F 98% 29.67 in 10.0 mi SW 5.8 mph - N/A Rain Light Rain
4:55 AM 64.2 °F 63.7 °F 98% 29.67 in 10.0 mi SSW 6.9 mph - N/A   Overcast
5:15 AM 64.0 °F 63.5 °F 98% 29.67 in 10.0 mi SSW 10.4 mph - N/A   Overcast
5:35 AM 63.5 °F 63.0 °F 98% 29.64 in 10.0 mi SSW 5.8 mph - N/A Rain Light Rain
5:55 AM 63.1 °F 62.6 °F 98% 29.65 in 10.0 mi SW 5.8 mph - N/A   Mostly Cloudy
6:15 AM 63.1 °F 62.6 °F 98% 29.64 in 10.0 mi SSW 4.6 mph - N/A   Overcast
6:35 AM 63.0 °F 62.6 °F 99% 29.63 in 10.0 mi South 4.6 mph - N/A Rain Light Rain
6:55 AM 63.0 °F 62.6 °F 99% 29.62 in 10.0 mi South 4.6 mph - 0.01 in Rain Light Rain
7:15 AM 63.0 °F 62.6 °F 99% 29.62 in 10.0 mi South 6.9 mph - N/A Rain Light Rain
7:35 AM 63.0 °F 62.6 °F 99% 29.61 in 10.0 mi South 5.8 mph - N/A   Overcast
7:55 AM 63.0 °F 62.6 °F 99% 29.60 in 10.0 mi South 6.9 mph - N/A Rain Light Rain
8:15 AM 62.8 °F 62.4 °F 99% 29.59 in 10.0 mi Calm Calm - N/A Rain Light Rain
8:35 AM 62.6 °F 62.1 °F 98% 29.59 in 10.0 mi SW 3.5 mph - N/A Rain Light Rain
8:55 AM 62.6 °F 61.9 °F 97% 29.60 in 10.0 mi Calm Calm - 0.01 in Rain Light Rain
9:15 AM 62.2 °F 61.7 °F 98% 29.59 in 7.0 mi Calm Calm - 0.02 in Rain Rain
9:35 AM 62.6 °F 61.9 °F 97% 29.57 in 10.0 mi Calm Calm - 0.04 in Rain Light Rain
9:55 AM 62.6 °F 61.9 °F 97% 29.56 in 7.0 mi Calm Calm - 0.06 in Rain Rain
10:15 AM 62.6 °F 62.1 °F 98% 29.55 in 10.0 mi Calm Calm - 0.01 in Rain Light Rain
10:35 AM 62.4 °F 61.7 °F 97% 29.54 in 5.0 mi Calm Calm - 0.04 in Rain Rain
10:55 AM 61.7 °F 61.0 °F 97% 29.52 in 5.0 mi West 3.5 mph - 0.06 in Rain Rain
11:15 AM 61.5 °F 61.0 °F 98% 29.51 in 5.0 mi West 4.6 mph - 0.02 in Rain Rain
11:35 AM 61.0 °F 60.4 °F 98% 29.49 in 3.0 mi WNW 5.8 mph - 0.07 in Rain Rain
11:55 AM 60.8 °F 60.3 °F 98% 29.47 in 7.0 mi WNW 4.6 mph - 0.09 in Rain Rain
12:15 PM 60.4 °F 59.9 °F 98% 29.47 in 3.0 mi WNW 9.2 mph - 0.06 in Rain Heavy Rain
12:35 PM 59.9 °F 59.2 °F 97% 29.47 in 2.5 mi West 13.8 mph - 0.16 in Rain Heavy Rain
12:55 PM 58.6 °F 58.1 °F 98% 29.47 in 3.0 mi WNW 17.3 mph - 0.28 in Rain Heavy Rain
1:15 PM 58.1 °F 57.6 °F 98% 29.46 in 7.0 mi NW 13.8 mph - 0.04 in Rain Light Rain
1:35 PM 56.8 °F 56.5 °F 99% 29.42 in 10.0 mi NNW 11.5 mph - 0.07 in Rain Light Rain
1:55 PM 56.1 °F 55.8 °F 99% 29.39 in 10.0 mi NNW 16.1 mph - 0.07 in   Mostly Cloudy
2:15 PM 55.4 °F 55.0 °F 99% 29.41 in 10.0 mi NW 16.1 mph 20.7 mph N/A   Overcast
2:35 PM 54.9 °F 54.5 °F 99% 29.41 in 10.0 mi WNW 16.1 mph - N/A Rain Light Rain
2:55 PM 55.0 °F 54.7 °F 99% 29.43 in 10.0 mi WNW 16.1 mph 21.9 mph N/A   Overcast
3:15 PM 54.7 °F 54.3 °F 99% 29.42 in 10.0 mi WNW 15.0 mph - N/A   Overcast
3:35 PM 53.8 °F 53.6 °F 99% 29.43 in 10.0 mi WNW 17.3 mph - N/A   Overcast
3:55 PM 52.3 °F 52.0 °F 99% 29.42 in 10.0 mi WNW 17.3 mph - N/A   Overcast
4:15 PM 51.3 °F 50.9 °F 99% 29.44 in 10.0 mi WNW 15.0 mph - N/A   Overcast
4:35 PM 50.5 °F 50.2 °F 99% 29.45 in 5.0 mi West 15.0 mph 19.6 mph N/A Rain Light Rain
4:55 PM 49.6 °F 49.3 °F 99% 29.45 in 7.0 mi WNW 19.6 mph - N/A Rain Light Rain
5:15 PM 49.1 °F 48.7 °F 99% 29.45 in 10.0 mi WNW 15.0 mph - N/A Rain Light Rain
5:35 PM 49.1 °F 48.7 °F 99% 29.46 in 10.0 mi WNW 9.2 mph - 0.02 in   Overcast
5:55 PM 48.7 °F 48.4 °F 99% 29.47 in 10.0 mi WNW 8.1 mph - 0.02 in   Overcast
6:15 PM 49.1 °F 48.6 °F 98% 29.49 in 10.0 mi West 12.7 mph - N/A   Overcast
6:35 PM 48.4 °F 48.2 °F 99% 29.49 in 10.0 mi West 13.8 mph 18.4 mph N/A   Overcast
6:55 PM 48.2 °F 47.8 °F 99% 29.49 in 10.0 mi West 13.8 mph - N/A   Overcast
7:15 PM 48.2 °F 47.7 °F 98% 29.50 in 10.0 mi West 11.5 mph - N/A   Overcast
7:35 PM 47.8 °F 47.5 °F 99% 29.50 in 10.0 mi West 12.7 mph - N/A   Overcast
7:55 PM 47.7 °F 47.3 °F 99% 29.51 in 10.0 mi West 10.4 mph - N/A   Overcast
8:15 PM 47.8 °F 47.5 °F 99% 29.51 in 10.0 mi West 12.7 mph - N/A   Overcast
8:35 PM 47.5 °F 47.3 °F 99% 29.50 in 10.0 mi West 12.7 mph - N/A   Overcast
8:55 PM 47.5 °F 47.3 °F 99% 29.52 in 10.0 mi West 13.8 mph - N/A   Overcast
9:15 PM 47.7 °F 47.3 °F 99% 29.52 in 10.0 mi West 12.7 mph - N/A   Overcast
9:35 PM 47.7 °F 47.3 °F 99% 29.54 in 10.0 mi West 12.7 mph 18.4 mph N/A   Overcast
9:55 PM 48.0 °F 47.7 °F 99% 29.55 in 10.0 mi West 10.4 mph - N/A   Overcast
10:15 PM 48.2 °F 47.7 °F 98% 29.55 in 10.0 mi West 12.7 mph 17.3 mph N/A   Overcast
10:35 PM 48.6 °F 47.8 °F 97% 29.55 in 10.0 mi West 11.5 mph - N/A   Overcast
10:55 PM 48.4 °F 46.6 °F 93% 29.56 in 10.0 mi WSW 11.5 mph - N/A   Overcast
11:15 PM 48.4 °F 46.6 °F 93% 29.56 in 10.0 mi WSW 9.2 mph - N/A   Overcast
11:35 PM 48.2 °F 46.4 °F 93% 29.55 in 7.0 mi WSW 9.2 mph - N/A   Overcast
11:55 PM 48.2 °F 46.4 °F 93% 29.56 in 7.0 mi SW 8.1 mph - N/A   Overcast